Regional Weather Roundup
Issued by NWS

Home | Current Version | Previous Version | Graphics & Text | Print | Product List | Glossary On
Versions: 1 2 3 4 5 6 7 8 9 10 11 12 13 14 15 16 17 18 19 20 21 22 23 24 25 26 27 28 29 30 31 32 33 34 35 36 37 38 39 40 41 42 43 44 45 46 47 48 49 50
343
ASUS45 KCYS 060110
RWRWY

WYOMING REGIONAL WEATHER ROUNDUP
NATIONAL WEATHER SERVICE CHEYENNE WY
700 PM MDT THU MAY 05 2016

NOTE:  "FAIR" INDICATES FEW OR NO CLOUDS BELOW 12,000 FEET
WITH NO SIGNIFICANT WEATHER AND/OR OBSTRUCTIONS TO VISIBILITY.

WYZ001-060200-
YELLOWSTONE NATIONAL PARK

CITY           SKY/WX    TMP DP  RH WIND       PRES   REMARKS
LK YELLOWSTONE   N/A     56  32  40 CALM      30.11F
W YELLOWSTONE  NOT AVBL

$$
WYZ002>013-054>058-071-098>099-060200-
NORTHERN WYOMING

CITY           SKY/WX    TMP DP  RH WIND       PRES   REMARKS
JACKSON        CLOUDY    86  30  13 SE7       30.01R
CODY           FAIR      73  30  20 SE13      29.91S
GREYBULL       FAIR      82  26  13 S8        29.84F
WORLAND        FAIR      79  38  22 SE7       29.87F
SHERIDAN       FAIR      75  52  44 S3        29.88R
BUFFALO        FAIR      74  42  31 CALM      29.95F
GILLETTE       FAIR      74  44  34 NE3       29.90F
HULETT         FAIR      79  45  29 E7        29.91F
NEWCASTLE      FAIR      81  23  12 S3        29.91F

$$
WYZ014>020-022>026-101>103-060200-
CENTRAL WYOMING

CITY           SKY/WX    TMP DP  RH WIND       PRES   REMARKS
BIG PINEY      FAIR      70  22  16 S5        30.02F
PINEDALE       FAIR      66  21  18 SE7       30.05S
DUBOIS         FAIR      66  25  20 SE12      30.05S
LANDER         FAIR      69  40  34 S8        29.93F
RIVERTON       FAIR      75  34  22 SE6       29.95F
CASPER         FAIR      74  35  24 VRB3      29.96F
DOUGLAS        FAIR      72  39  30 S3        29.95F

$$
WYZ021-027>030-104>119-060200-
SOUTHERN WYOMING

CITY           SKY/WX    TMP DP  RH WIND       PRES   REMARKS
EVANSTON       FAIR      65  27  23 S13       30.00F
KEMMERER         N/A     66  19  16 S9G17     30.03F
FORT BRIDGER   CLEAR     70  28  21 S8        30.04S
ROCK SPRINGS   FAIR      67  21  17 S8        30.01F
DIXON          FAIR      71  30  21 E6        30.05S
RAWLINS        FAIR      69  26  20 CALM      30.05F
SARATOGA       FAIR      68  27  21 E5        30.07F
LARAMIE        FAIR      67  27  22 NE5       30.10F
CHEYENNE       PTSUNNY   71  32  23 S13       30.05S
TORRINGTON     FAIR      78  42  27 E5        29.91F
PINE BLUFFS    FAIR      70  36  28 SE7       30.00F

$$




USA.gov is the U.S. government's official web portal to all federal, state and local government web resources and services.